Location: ????????
(55.4717°N, 39.1821°E)
Time: 05:09:31
(UTC+00:00)

CZ-2D R/B - Pass Details

Date: 14 April 2024
Orbit: 791 x 842 km, 98.8° (Epoch: 22 May)

Event Time Altitude Azimuth Distance (km) Brightness Sun altitude
Rises 00:53:15 0° 13° (NNE) 3,337 6.2 -11.8°
Reaches altitude 10° 00:55:46 10° 4° (N) 2,410 5.2 -11.5°
Maximum altitude 01:00:28 33° 302° (WNW) 1,343 3.1 -11.0°
Enters shadow 01:04:32 13° 243° (WSW) 2,188 3.7 -10.5°
